This is the latest recevied weather packets stored in our database for station/object KO4ZGL-13. If no packets are shown the sender has not sent any weather packets the latest 10 day(s).
| Time | Temp. | Humidity | Pressure | Rain* | Wind** | Luminosity | Snow |
|---|---|---|---|---|---|---|---|
| 1787528814 | 28.89° C | 88% | 1013.3 hPa | 0 mm | - | 3 W/m² | - |
| 1787528510 | 28.89° C | 87% | 1013.3 hPa | 0 mm | - | 3 W/m² | - |
| 1787528205 | 28.89° C | 87% | 1013.2 hPa | 0 mm | - | 5 W/m² | - |
| 1787527902 | 28.89° C | 85% | 1013.1 hPa | 0 mm | - | 7 W/m² | - |
| 1787527597 | 29.44° C | 84% | 1012.9 hPa | 0 mm | - | 10 W/m² | - |
| 1787527293 | 29.44° C | 83% | 1013.1 hPa | 0 mm | - | 12 W/m² | - |
| 1787526988 | 29.44° C | 82% | 1012.9 hPa | 0 mm | - | 16 W/m² | - |
| 1787526684 | 30° C | 81% | 1012.9 hPa | 0 mm | - | 26 W/m² | - |
| 1787526381 | 30° C | 79% | 1013 hPa | 0 mm | - | 30 W/m² | - |
| 1787526077 | 30.56° C | 79% | 1013.1 hPa | 0 mm | - | 34 W/m² | - |
| 1787525773 | 30.56° C | 78% | 1012.9 hPa | 0 mm | - | 38 W/m² | - |
| 1787525472 | 30.56° C | 79% | 1013 hPa | 0 mm | - | 42 W/m² | - |
| 1787525168 | 30.56° C | 80% | 1012.9 hPa | 0 mm | - | 42 W/m² | - |
| 1787524863 | 30.56° C | 79% | 1012.9 hPa | 0 mm | - | 46 W/m² | - |
| 1787524559 | 31.11° C | 78% | 1013.1 hPa | 0 mm | - | 51 W/m² | - |
| 1787524259 | 31.11° C | 76% | 1013.1 hPa | 0 mm | - | 60 W/m² | - |
| 1787523955 | 31.11° C | 76% | 1013 hPa | 0 mm | - | 78 W/m² | - |
| 1787523650 | 31.11° C | 76% | 1013.1 hPa | 0 mm | - | 76 W/m² | - |
| 1787523349 | 31.67° C | 75% | 1013.2 hPa | 0 mm | - | 78 W/m² | - |
| 1787523045 | 31.67° C | 75% | 1013.3 hPa | 0 mm | - | 81 W/m² | - |
| 1787522741 | 32.22° C | 74% | 1013.2 hPa | 0 mm | - | 114 W/m² | - |
| 1787522436 | 32.78° C | 74% | 1013.1 hPa | 0 mm | - | 88 W/m² | - |
| 1787522131 | 33.33° C | 73% | 1013.1 hPa | 0 mm | - | 206 W/m² | - |
| 1787521830 | 33.89° C | 71% | 1012.9 hPa | 0 mm | - | 204 W/m² | - |
| 1787521525 | 33.33° C | 73% | 1013.2 hPa | 0 mm | - | 258 W/m² | - |
* Rain latest hour (hover to see other rain measurements)
** Current wind speed in m/s (hover to see current wind gust speed)